TimeCST,TemperatureF,Dew PointF,Humidity,Sea Level PressureIn,VisibilityMPH,Wind Direction,Wind SpeedMPH,Gust SpeedMPH,PrecipitationIn,Events,Conditions,WindDirDegrees,DateUTC
12:15 AM,65.5,60.3,83,29.82,10.0,SE,5.8,-,N/A,,Clear,140,2012-12-07 06:15:00
12:35 AM,65.3,61.0,86,29.82,10.0,SE,5.8,-,N/A,,Clear,140,2012-12-07 06:35:00
12:55 AM,65.3,62.2,90,29.81,10.0,SE,6.9,-,N/A,,Clear,140,2012-12-07 06:55:00
1:15 AM,65.3,63.5,94,29.81,10.0,SE,6.9,-,N/A,,Clear,130,2012-12-07 07:15:00
1:35 AM,65.3,64.0,96,29.81,10.0,ESE,6.9,-,N/A,,Clear,120,2012-12-07 07:35:00
1:55 AM,65.3,64.6,98,29.81,10.0,SE,6.9,-,N/A,,Clear,130,2012-12-07 07:55:00
2:15 AM,65.3,64.6,98,29.80,10.0,SE,4.6,-,N/A,,Scattered Clouds,140,2012-12-07 08:15:00
2:35 AM,65.7,65.3,99,29.80,10.0,SE,8.1,-,N/A,,Overcast,140,2012-12-07 08:35:00
2:55 AM,66.2,65.8,99,29.80,7.0,SE,8.1,-,N/A,,Overcast,140,2012-12-07 08:55:00
3:15 AM,66.6,66.2,99,29.79,10.0,SE,9.2,-,N/A,,Overcast,140,2012-12-07 09:15:00
3:35 AM,67.1,66.6,98,29.79,10.0,SE,8.1,-,N/A,,Overcast,130,2012-12-07 09:35:00
3:55 AM,67.1,66.6,98,29.79,10.0,SE,11.5,-,N/A,,Overcast,140,2012-12-07 09:55:00
4:15 AM,67.3,66.7,98,29.79,10.0,SE,12.7,19.6,N/A,,Overcast,130,2012-12-07 10:15:00
4:35 AM,67.1,66.4,98,29.78,7.0,ESE,8.1,-,N/A,,Overcast,120,2012-12-07 10:35:00
5:15 AM,66.7,66.2,98,29.78,7.0,SE,6.9,-,N/A,,Overcast,140,2012-12-07 11:15:00
5:35 AM,67.1,66.4,98,29.78,7.0,SE,9.2,-,N/A,,Overcast,140,2012-12-07 11:35:00
5:55 AM,67.1,66.4,98,29.79,7.0,SE,8.1,16.1,N/A,,Overcast,140,2012-12-07 11:55:00
6:15 AM,67.3,66.4,97,29.80,7.0,SSE,9.2,-,N/A,,Overcast,150,2012-12-07 12:15:00
6:35 AM,67.1,66.2,97,29.80,7.0,SSE,9.2,-,N/A,,Overcast,150,2012-12-07 12:35:00
6:55 AM,67.1,65.8,96,29.81,7.0,SE,5.8,-,N/A,,Overcast,140,2012-12-07 12:55:00
7:15 AM,66.9,65.7,96,29.82,7.0,SSE,9.2,-,N/A,,Overcast,160,2012-12-07 13:15:00
7:35 AM,66.7,65.3,95,29.82,7.0,SSE,6.9,-,N/A,,Overcast,150,2012-12-07 13:35:00
7:55 AM,67.1,65.3,94,29.83,7.0,SSE,5.8,-,N/A,,Overcast,160,2012-12-07 13:55:00
8:15 AM,67.1,64.6,92,29.83,7.0,South,6.9,-,N/A,,Overcast,170,2012-12-07 14:15:00
8:35 AM,67.1,64.6,92,29.84,7.0,South,3.5,-,N/A,,Overcast,170,2012-12-07 14:35:00
8:55 AM,67.3,64.4,90,29.84,7.0,SSE,5.8,-,N/A,,Overcast,160,2012-12-07 14:55:00
9:15 AM,68.0,64.4,88,29.85,7.0,SSE,6.9,-,N/A,,Overcast,160,2012-12-07 15:15:00
9:35 AM,68.5,64.4,87,29.85,7.0,South,4.6,-,N/A,,Overcast,190,2012-12-07 15:35:00
9:55 AM,68.9,64.2,85,29.86,10.0,South,4.6,-,N/A,,Overcast,170,2012-12-07 15:55:00
10:15 AM,70.0,64.4,82,29.85,7.0,SE,4.6,-,N/A,,Overcast,130,2012-12-07 16:15:00
10:35 AM,72.1,64.2,76,29.85,10.0,SE,4.6,-,N/A,,Scattered Clouds,140,2012-12-07 16:35:00
10:55 AM,74.3,63.5,69,29.84,10.0,SSE,8.1,-,N/A,,Clear,150,2012-12-07 16:55:00
11:15 AM,75.0,63.5,67,29.83,10.0,SSE,6.9,-,N/A,,Clear,160,2012-12-07 17:15:00
11:35 AM,76.6,63.0,62,29.82,10.0,SE,8.1,-,N/A,,Clear,130,2012-12-07 17:35:00
11:55 AM,77.7,63.0,60,29.82,10.0,SSE,8.1,-,N/A,,Clear,160,2012-12-07 17:55:00
12:15 PM,79.2,62.2,56,29.80,10.0,SSE,10.4,-,N/A,,Clear,160,2012-12-07 18:15:00
12:35 PM,79.0,61.7,55,29.79,10.0,SSE,10.4,17.3,N/A,,Clear,150,2012-12-07 18:35:00
12:55 PM,82.2,62.1,50,29.77,10.0,SE,8.1,-,N/A,,Clear,130,2012-12-07 18:55:00
1:15 PM,80.6,61.3,52,29.77,10.0,SSE,9.2,-,N/A,,Clear,160,2012-12-07 19:15:00
1:35 PM,82.4,61.0,48,29.75,10.0,SSE,9.2,17.3,N/A,,Clear,150,2012-12-07 19:35:00
1:55 PM,83.5,61.2,47,29.74,10.0,SE,10.4,17.3,N/A,,Clear,140,2012-12-07 19:55:00
2:15 PM,84.2,61.5,46,29.74,10.0,SSE,6.9,-,N/A,,Clear,150,2012-12-07 20:15:00
2:35 PM,84.4,61.3,46,29.73,10.0,SSE,11.5,-,N/A,,Clear,150,2012-12-07 20:35:00
2:55 PM,84.4,62.1,47,29.72,10.0,SSE,11.5,-,N/A,,Clear,150,2012-12-07 20:55:00
3:15 PM,83.7,61.2,46,29.72,10.0,SSE,10.4,18.4,N/A,,Clear,150,2012-12-07 21:15:00
3:35 PM,83.5,60.8,46,29.71,10.0,SE,10.4,16.1,N/A,,Clear,140,2012-12-07 21:35:00
3:55 PM,84.4,60.6,45,29.71,10.0,SSE,10.4,-,N/A,,Clear,150,2012-12-07 21:55:00
4:15 PM,84.2,60.6,45,29.71,10.0,SSE,10.4,-,N/A,,Clear,150,2012-12-07 22:15:00
4:35 PM,83.5,59.5,44,29.72,10.0,SE,9.2,16.1,N/A,,Clear,140,2012-12-07 22:35:00
4:55 PM,82.9,60.4,46,29.72,10.0,SSE,9.2,-,N/A,,Clear,150,2012-12-07 22:55:00
5:15 PM,81.5,60.3,48,29.72,10.0,SE,8.1,16.1,N/A,,Clear,140,2012-12-07 23:15:00
5:35 PM,80.2,60.8,51,29.73,10.0,SE,5.8,-,N/A,,Clear,130,2012-12-07 23:35:00
5:55 PM,78.1,60.8,55,29.73,10.0,ESE,4.6,-,N/A,,Clear,110,2012-12-07 23:55:00
6:15 PM,76.6,61.2,59,29.74,10.0,Calm,Calm,-,N/A,,Clear,0,2012-12-08 00:15:00
6:35 PM,75.2,61.3,62,29.74,10.0,ESE,3.5,-,N/A,,Clear,110,2012-12-08 00:35:00
6:55 PM,75.7,61.7,62,29.75,10.0,ESE,6.9,-,N/A,,Clear,120,2012-12-08 00:55:00
7:15 PM,74.7,61.9,64,29.76,10.0,ESE,4.6,-,N/A,,Clear,120,2012-12-08 01:15:00
7:35 PM,74.8,63.1,67,29.77,10.0,SE,5.8,-,N/A,,Clear,130,2012-12-08 01:35:00
9:15 PM,73.8,66.2,77,29.81,10.0,ESE,5.8,-,N/A,,Clear,120,2012-12-08 03:15:00
9:55 PM,72.5,66.6,82,29.80,10.0,SE,6.9,-,N/A,,Clear,130,2012-12-08 03:55:00
10:35 PM,71.8,67.1,85,29.81,10.0,SE,6.9,-,N/A,,Clear,130,2012-12-08 04:35:00
10:55 PM,71.2,67.1,87,29.79,10.0,SE,8.1,-,N/A,,Clear,130,2012-12-08 04:55:00
11:15 PM,70.9,67.3,88,29.79,10.0,ESE,5.8,-,N/A,,Clear,110,2012-12-08 05:15:00
11:35 PM,70.2,67.3,91,29.79,10.0,ESE,5.8,-,N/A,,Clear,120,2012-12-08 05:35:00